User: anonymous   Login
Location: Colle Santa Colomba
(42.0333°N, 12.5667°E)
Time: 12:21:45
(UTC+00:00)
Language:

Cosmos 1602 Rocket - Orbit

View from above orbital plane
View from above orbital plane
View from above satellite
View from above satellite

Ground track
Ground track

The orbit data is extracted from the following two-line orbital elements,

1 15332U 84105B   22025.62023133  .00000149  00000-0  15212-4 0  9992
2 15332  82.5328  54.2796 0020190 214.8823 265.8534 14.83511342995061
Epoch (UTC): 25 January 2022 14:53:07
Eccentricity: 0.0020190
inclination: 82.5328°
perigee height: 604 km
apogee height: 632 km
right ascension of ascending node: 54.2796°
argument of perigee: 214.8823°
revolutions per day: 14.83511342
mean anomaly at epoch: 265.8534°
orbit number at epoch: 99506

The dashed part of the orbit path shows where the satellite is in the earth's shadow,  

DLR